Ely, MN

6:44 PM CST on February 23, 2017 (GMT -0600)
Ely Municipal

Weather History for KELO - September, 2011

Change the Weather History Date:

Monday, September 12, 2011

  Actual Average Record
Temperature  
Mean Temperature 64 °F -  
Max Temperature 80 °F 66 °F 80 °F (2002)
Min Temperature 48 °F 45 °F 32 °F (2014)
Degree Days  
Heating Degree Days 1    
Growing Degree Days 14 (Base 50)    
Moisture  
Dew Point 50 °F    
Average Humidity 57    
Maximum Humidity 93    
Minimum Humidity 42    
Precipitation  
Precipitation 0.00 in - - ()
Sea Level Pressure  
Sea Level Pressure 29.70 in    
Wind  
Wind Speed 8 mph (SW)    
Max Wind Speed 25 mph    
Max Gust Speed 39 mph    
Visibility 10 miles    
Events      
Averages and records for this station are not official NWS values.
T = Trace of Precipitation, MM = Missing Value Source: NWS Daily Summary

Daily Weather History Graph

Daily Weather History Graph

Search for Another Location

Airport or City:

Trip Planner

Search our weather history database for the weather conditions in past years. The results will help you decide how hot, cold, wet, or windy it might be!

Date:

Astronomy

Sep. 12, 2011 Rise Set
Actual Time 6:40 AM CDT 7:26 PM CDT
Civil Twilight 6:08 AM CDT 7:57 PM CDT
Nautical Twilight 5:31 AM CDT 8:34 PM CDT
Astronomical Twilight 4:52 AM CDT 9:13 PM CDT
Moon 7:06 PM CDT (9/12) 7:03 AM CDT (9/12)
Length of Visible Light 13h 48m
Length of Day
12h 46m
Full, 100% of the Moon is Illuminated
Sep 12
Full
Sep 20
Last Quarter
Sep 27
New
Oct 3
First Quarter
Oct 11
Full

Hourly Weather History & Observations

Time (CDT) Temp. Heat Index Dew Point Humidity Pressure Visibility Wind Dir Wind Speed Gust Speed Precip Events Conditions
12:13 AM 51.8 °F - 44.6 °F 76% 29.89 in 10.0 mi Calm Calm - N/A   Clear
12:33 AM 51.8 °F - 46.4 °F 82% 29.89 in 10.0 mi Calm Calm - N/A   Clear
12:52 AM 51.8 °F - 44.6 °F 76% 29.89 in 10.0 mi Calm Calm - N/A   Clear
1:13 AM 50.0 °F - 44.6 °F 82% 29.88 in 10.0 mi Calm Calm - N/A   Clear
1:33 AM 50.0 °F - 44.6 °F 82% 29.88 in 10.0 mi Calm Calm - N/A   Clear
1:52 AM 48.2 °F - 46.4 °F 93% 29.87 in 10.0 mi Calm Calm - N/A   Clear
2:13 AM 55.4 °F - 44.6 °F 67% 29.85 in 10.0 mi SSE 8.1 mph - N/A   Clear
2:33 AM 59.0 °F - 44.6 °F 59% 29.85 in 10.0 mi SSE 5.8 mph - N/A   Clear
2:52 AM 60.8 °F - 44.6 °F 55% 29.84 in 10.0 mi SSE 6.9 mph - N/A   Clear
3:13 AM 60.8 °F - 42.8 °F 52% 29.84 in 10.0 mi SSE 5.8 mph - N/A   Clear
3:30 AM 60.8 °F - 42.8 °F 52% 29.83 in 10.0 mi SE 9.2 mph - N/A   Clear
3:51 AM 62.6 °F - 42.8 °F 48% 29.83 in 10.0 mi SSE 10.4 mph - N/A   Clear
4:13 AM 62.6 °F - 42.8 °F 48% 29.82 in 10.0 mi SSE 6.9 mph - N/A   Clear
4:32 AM 60.8 °F - 42.8 °F 52% 29.82 in 10.0 mi SSE 5.8 mph - N/A   Clear
4:52 AM 60.8 °F - 44.6 °F 55% 29.81 in 10.0 mi SSE 4.6 mph - N/A   Clear
5:13 AM 60.8 °F - 44.6 °F 55% 29.80 in 10.0 mi SSE 4.6 mph - N/A   Clear
5:33 AM 59.0 °F - 44.6 °F 59% 29.79 in 10.0 mi South 3.5 mph - N/A   Clear
5:52 AM 59.0 °F - 46.4 °F 63% 29.79 in 10.0 mi South 5.8 mph - N/A   Clear
6:13 AM 60.8 °F - 46.4 °F 59% 29.79 in 10.0 mi South 3.5 mph - N/A   Scattered Clouds
6:33 AM 60.8 °F - 46.4 °F 59% 29.78 in 10.0 mi SSE 4.6 mph - N/A   Scattered Clouds
6:52 AM 60.8 °F - 48.2 °F 63% 29.77 in 10.0 mi SSE 6.9 mph - N/A   Scattered Clouds
7:13 AM 60.8 °F - 48.2 °F 63% 29.76 in 10.0 mi South 4.6 mph - N/A   Scattered Clouds
7:33 AM 62.6 °F - 51.8 °F 68% 29.75 in 10.0 mi South 5.8 mph - N/A   Mostly Cloudy
7:52 AM 64.4 °F - 51.8 °F 64% 29.74 in 10.0 mi South 6.9 mph - N/A   Scattered Clouds
8:13 AM 66.2 °F - 53.6 °F 64% 29.72 in 10.0 mi South 6.9 mph - N/A   Scattered Clouds
8:33 AM 66.2 °F - 53.6 °F 64% 29.70 in 10.0 mi South 8.1 mph - N/A   Clear
8:53 AM 69.8 °F - 55.4 °F 60% 29.68 in 10.0 mi South 8.1 mph - N/A   Clear
9:12 AM 71.6 °F - 55.4 °F 57% 29.66 in 10.0 mi South 12.7 mph 18.4 mph N/A   Clear
9:32 AM 71.6 °F - 55.4 °F 57% 29.65 in 10.0 mi South 12.7 mph 20.7 mph N/A   Scattered Clouds
9:53 AM 71.6 °F - 55.4 °F 57% 29.64 in 10.0 mi South 17.3 mph 24.2 mph N/A   Scattered Clouds
10:13 AM 75.2 °F - 55.4 °F 50% 29.62 in 10.0 mi South 16.1 mph 24.2 mph N/A   Scattered Clouds
10:32 AM 77.0 °F - 55.4 °F 47% 29.61 in 10.0 mi SSW 15.0 mph 26.5 mph N/A   Clear
10:53 AM 78.8 °F - 55.4 °F 44% 29.61 in 10.0 mi SSW 18.4 mph 28.8 mph N/A   Clear
11:12 AM 78.8 °F - 55.4 °F 44% 29.60 in 10.0 mi SW 18.4 mph 29.9 mph N/A   Clear
11:32 AM 78.8 °F - 55.4 °F 44% 29.59 in 10.0 mi SW 13.8 mph 25.3 mph N/A   Clear
11:53 AM 78.8 °F - 55.4 °F 44% 29.58 in 10.0 mi SW 19.6 mph 25.3 mph N/A   Clear
12:12 PM 78.8 °F - 55.4 °F 44% 29.57 in 10.0 mi SW 15.0 mph 25.3 mph N/A   Clear
12:32 PM 80.6 °F 80.5 °F 55.4 °F 42% 29.57 in 10.0 mi SW 17.3 mph 24.2 mph N/A   Scattered Clouds
12:53 PM 80.6 °F 80.5 °F 55.4 °F 42% 29.57 in 10.0 mi WSW 15.0 mph 25.3 mph N/A   Clear
1:13 PM 80.6 °F 80.5 °F 55.4 °F 42% 29.56 in 10.0 mi WSW 15.0 mph 26.5 mph N/A   Clear
1:32 PM 80.6 °F 80.5 °F 55.4 °F 42% 29.55 in 10.0 mi SW 11.5 mph 20.7 mph N/A   Clear
1:52 PM 80.6 °F 80.5 °F 55.4 °F 42% 29.54 in 10.0 mi SW 11.5 mph 20.7 mph N/A   Clear
2:13 PM 80.6 °F 80.5 °F 55.4 °F 42% 29.53 in 10.0 mi SW 13.8 mph 24.2 mph N/A   Clear
2:32 PM 80.6 °F 80.5 °F 55.4 °F 42% 29.52 in 10.0 mi SW 10.4 mph 21.9 mph N/A   Clear
2:52 PM 80.6 °F 80.5 °F 55.4 °F 42% 29.54 in 10.0 mi WSW 17.3 mph 27.6 mph N/A   Clear
3:12 PM 78.8 °F - 57.2 °F 47% 29.53 in 10.0 mi West 17.3 mph 26.5 mph N/A   Scattered Clouds
3:33 PM 78.8 °F - 57.2 °F 47% 29.53 in 10.0 mi West 25.3 mph 34.5 mph N/A   Mostly Cloudy
3:52 PM 78.8 °F - 55.4 °F 44% 29.53 in 10.0 mi West 20.7 mph 36.8 mph N/A   Scattered Clouds
4:13 PM 78.8 °F - 53.6 °F 42% 29.55 in 10.0 mi WNW 20.7 mph 36.8 mph N/A   Scattered Clouds
4:33 PM 71.6 °F - 55.4 °F 57% 29.58 in 10.0 mi WNW 16.1 mph 31.1 mph N/A   Scattered Clouds
4:52 PM 73.4 °F - 53.6 °F 50% 29.59 in 10.0 mi WNW 24.2 mph 34.5 mph N/A   Clear
5:13 PM 71.6 °F - 51.8 °F 50% 29.60 in 10.0 mi WNW 19.6 mph 39.1 mph N/A   Scattered Clouds
5:33 PM 69.8 °F - 51.8 °F 53% 29.62 in 10.0 mi WNW 25.3 mph 33.4 mph N/A   Scattered Clouds
5:52 PM 66.2 °F - 50.0 °F 56% 29.64 in 10.0 mi WNW 18.4 mph 34.5 mph N/A   Clear
6:13 PM 66.2 °F - 50.0 °F 56% 29.66 in 10.0 mi NW 16.1 mph 29.9 mph N/A   Mostly Cloudy
6:32 PM 62.6 °F - 51.8 °F 68% 29.69 in 10.0 mi WNW 13.8 mph 29.9 mph N/A   Overcast
6:52 PM 60.8 °F - 48.2 °F 63% 29.71 in 10.0 mi WNW 15.0 mph 24.2 mph N/A   Overcast
7:13 PM 59.0 °F - 46.4 °F 63% 29.73 in 10.0 mi NW 17.3 mph 29.9 mph N/A   Overcast
7:33 PM 57.2 °F - 44.6 °F 63% 29.75 in 10.0 mi NW 12.7 mph 31.1 mph N/A   Overcast
7:52 PM 57.2 °F - 44.6 °F 63% 29.75 in 10.0 mi NW 11.5 mph 28.8 mph N/A   Overcast
8:13 PM 55.4 °F - 44.6 °F 67% 29.77 in 10.0 mi NNW 15.0 mph 31.1 mph N/A   Overcast
8:33 PM 55.4 °F - 44.6 °F 67% 29.79 in 10.0 mi NW 13.8 mph 25.3 mph N/A   Overcast
8:52 PM 55.4 °F - 42.8 °F 63% 29.80 in 10.0 mi NW 11.5 mph 18.4 mph N/A   Overcast
9:13 PM 53.6 °F - 41.0 °F 62% 29.81 in 10.0 mi NNW 15.0 mph 25.3 mph N/A   Overcast
9:32 PM 53.6 °F - 41.0 °F 62% 29.82 in 10.0 mi NNW 9.2 mph 20.7 mph N/A   Overcast
9:53 PM 53.6 °F - 41.0 °F 62% 29.82 in 10.0 mi NW 12.7 mph 25.3 mph N/A   Overcast
10:12 PM 53.6 °F - 42.8 °F 67% 29.82 in 10.0 mi NW 15.0 mph 21.9 mph N/A   Overcast
10:33 PM 53.6 °F - 42.8 °F 67% 29.83 in 10.0 mi NW 9.2 mph 23.0 mph N/A   Overcast
10:52 PM 51.8 °F - 41.0 °F 67% 29.83 in 10.0 mi NW 13.8 mph 18.4 mph N/A   Overcast
11:12 PM 51.8 °F - 41.0 °F 67% 29.84 in 10.0 mi NNW 5.8 mph - N/A   Overcast
11:33 PM 51.8 °F - 39.2 °F 62% 29.84 in 10.0 mi NNW 13.8 mph 21.9 mph N/A   Overcast
11:52 PM 51.8 °F - 39.2 °F 62% 29.84 in 10.0 mi NNW 8.1 mph 19.6 mph N/A   Overcast